Skip Navigation Links
NOAA logo - Click to go to the NOAA homepage
NOAA's National Weather Service
Alaska Aviation Weather Unit
  NWS logo - Click to go to the NWS homepage
Left Navbar Graphic     17 AKDT = 01 GMT

   
NOAA is celebrating 200 years of science, service, and stewardship. Visit the NOAA 200th celebration Web site to learn more.
USA.gov is the U.S. Government's official Web portal to all Federal, state and local government Web resources and services.
Facebook
NWS on Facebook

Important Change Regarding the AAWU Web Presence

 

Over the last several months, the AAWU has been working to navigate its webpages to a nationally supported server. Security, as well as other needs, have necessitated the change.  In the process, we have made an effort to enhance the functionality of our website, as well as some of our products. As of June 27, 2017, aawu.arh.noaa.gov will be discontinued. The new AAWU web address is weather.gov/aawu. It is now live and will run in-parallel with the old site until it is discontinued. Please send any feedback or questions regarding the new webpages to nws.ar.aawu.webauthors@noaa.gov.  Thank you for your patience during this time of transition.
AAWU Home :: Display TAF Add Bookmark
METAR PAZK 251956Z AUTO 19007KT 160V250 10SM BKN060 14/05 A2997 RMK
 AO2 SLP167 T01440050=

METAR PAZK 252056Z AUTO 01008KT 10SM BKN039 12/07 A2997 RMK AO2 SLP169
     T01170067 56010=

METAR PAZK 252156Z AUTO 32010KT 10SM SCT045 OVC055 13/05 A2995 RMK
 AO2 SLP160 T01330050=

METAR PAZK 252256Z AUTO 29009KT 10SM FEW060 15/05 A2994 RMK AO2
 SLP154 T01500050=

METAR PAZK 252356Z AUTO 24013KT 10SM FEW075 14/04 A2994 RMK AO2 SLP156
     T01390044 10156 20117 56008=


NOAA's National Weather Service
Alaska Aviation Weather Unit
6930 Sand Lake Road
Anchorage, AK 99502-1845
Disclaimer
Credits
Glossary
Privacy Policy
About Us
Career Opportunities
Contact AAWU Internet Services Site last modified: April, 17th 2012